Location: *
(44.3925°N, 5.4708°E)
Time: 10:48:08
(UTC+00:00)

CSL-04 Debris - Pass Details

Date: 18 September 2019
Orbit: 828 x 848 km, 99.0° (Epoch: 17 October)

Event Time Altitude Azimuth Distance (km) Brightness Sun altitude
Rises 18:07:07 0° 168° (SSE) 3,353 7.1 -5.0°
Reaches altitude 10° 18:09:28 10° 170° (S) 2,424 6.4 -5.4°
Maximum altitude 18:14:50 77° 256° (WSW) 855 4.4 -6.3°
Drops below altitude 10° 18:20:16 10° 343° (NNW) 2,448 7.0 -7.3°
Sets 18:22:38 0° 345° (NNW) 3,388 7.7 -7.7°
